This is the latest recevied weather packets stored in our database for station/object KC8UZG. If no packets are shown the sender has not sent any weather packets the latest 10 day(s).
| Time | Temp. | Humidity | Pressure | Rain* | Wind** | Luminosity | Snow |
|---|---|---|---|---|---|---|---|
| 1777472735 | 12.22° C | 99% | 1009.7 hPa | 0 mm | - | 7 W/m² | - |
| 1777472140 | 12.22° C | 99% | 1009 hPa | 0 mm | - | 29 W/m² | - |
| 1777471519 | 12.22° C | 99% | 1009.2 hPa | 0 mm | - | 67 W/m² | - |
| 1777470925 | 12.22° C | 99% | 1009.4 hPa | 0 mm | - | 94 W/m² | - |
| 1777470331 | 12.22° C | 99% | 1009.4 hPa | 0 mm | - | 72 W/m² | - |
| 1777469737 | 12.22° C | 99% | 1009.7 hPa | 0 mm | - | 83 W/m² | - |
| 1777469116 | 11.67° C | 99% | 1009.9 hPa | 0 mm | - | 27 W/m² | - |
| 1777468522 | 11.67° C | 99% | 1010.1 hPa | 0 mm | - | 14 W/m² | - |
| 1777467928 | 11.67° C | 99% | 1010.1 hPa | 0 mm | - | 33 W/m² | - |
| 1777467333 | 11.67° C | 99% | 1010.3 hPa | 0 mm | - | 12 W/m² | - |
| 1777466740 | 11.67° C | 99% | 1010.3 hPa | 0 mm | - | 9 W/m² | - |
| 1777466119 | 11.67° C | 99% | 1010.1 hPa | 0 mm | - | 22 W/m² | - |
| 1777465525 | 11.67° C | 99% | 1010.4 hPa | 0 mm | - | 19 W/m² | - |
| 1777464931 | 11.67° C | 99% | 1010.5 hPa | 0 mm | - | 2 W/m² | - |
| 1777464337 | 11.67° C | 99% | 1010.8 hPa | 0 mm | - | 0 W/m² | - |
| 1777463715 | 11.11° C | 99% | 1010.2 hPa | 0 mm | - | 4 W/m² | - |
| 1777463121 | 11.67° C | 99% | 1010.3 hPa | 0 mm | - | 1 W/m² | - |
| 1777462528 | 11.67° C | 99% | 1010.4 hPa | 0 mm | - | 0 W/m² | - |
| 1777461934 | 11.11° C | 99% | 1010.4 hPa | 0 mm | - | 0 W/m² | - |
| 1777461340 | 11.11° C | 99% | 1010.5 hPa | 0 mm | - | 0 W/m² | - |
| 1777460718 | 11.67° C | 99% | 1010.4 hPa | 0 mm | - | 0 W/m² | - |
| 1777460124 | 11.67° C | 99% | 1010.4 hPa | 0 mm | - | 0 W/m² | - |
| 1777459531 | 11.67° C | 99% | 1010.1 hPa | 0 mm | - | 0 W/m² | - |
| 1777458937 | 11.67° C | 99% | 1010.3 hPa | 0 mm | - | 0 W/m² | - |
| 1777458315 | 11.67° C | 99% | 1010.2 hPa | 0 mm | - | 0 W/m² | - |
* Rain latest hour (hover to see other rain measurements)
** Current wind speed in m/s (hover to see current wind gust speed)